Location: Gilevgi
(36.8751°N, 30.0581°E)
Time: 07:53:58
(UTC+00:00)

Okean 1-7 Rocket - Pass Details

Date: 23 March 2026
Orbit: 609 x 643 km, 82.5° (Epoch: 18 April)

Event Time Altitude Azimuth Distance (km) Brightness Sun altitude
Rises 01:19:49 0° 18° (NNE) 2,903 7.6 -31.4°
Reaches altitude 10° 01:23:57 10° 56° (NE) 1,981 7.0 -30.7°
Maximum altitude 01:25:02 11° 70° (ENE) 1,925 6.9 -30.5°
Drops below altitude 10° 01:26:07 10° 85° (E) 1,973 6.9 -30.3°
Sets 01:30:11 0° 123° (ESE) 2,865 7.4 -29.6°
